Weather reports worldwide

Advertisment
Bergerac, France (7530): temperature & dewpoint: 20.09.2018 17:00:00 - 26.09.2018 17:00:00 (CEST)Bergerac, France (7530): temperature 5cm: 20.09.2018 17:00:00 - 26.09.2018 17:00:00 (CEST)Bergerac, France (7530): temperature -20cm & temperature -100cm: 20.09.2018 17:00:00 - 26.09.2018 17:00:00 (CEST)Bergerac, France (7530): wind speed & gusts: 20.09.2018 17:00:00 - 26.09.2018 17:00:00 (CEST)Bergerac, France (7530): wind direction: 20.09.2018 17:00:00 - 26.09.2018 17:00:00 (CEST)Bergerac, France (7530): reduced air pressure: 20.09.2018 17:00:00 - 26.09.2018 17:00:00 (CEST)Bergerac, France (7530): visibility: 20.09.2018 17:00:00 - 26.09.2018 17:00:00 (CEST)Bergerac, France (7530): sunshine duration: 20.09.2018 17:00:00 - 26.09.2018 17:00:00 (CEST)Bergerac, France (7530): precipitation: 20.09.2018 17:00:00 - 26.09.2018 17:00:00 (CEST)
Date & Time tt [°C] td [°C] tt 5cm [°C] tt -20cm [°C] tt -100cm [°C] ff [km/h] ff [kn] fx [km/h] fx [kn] dd ppp [hPa] vv [km] sd [min] rr [mm]
26.09.2018 17:00:00 27,7 10,0 32,1 18,0 19,3 17 9 37 20 E 1027,7 60 60 0,0
26.09.2018 16:00:00 27,1 10,7 32,6 17,6 19,3 22 12 39 21 ESE 1028,0 60 60 0,0
26.09.2018 15:00:00 27,0 11,9 32,6 17,3 19,3 16 9 35 19 ESE 1028,5 57 60 0,0
26.09.2018 14:00:00 25,7 11,5 30,6 17,1 19,3 20 11 39 21 SE 1029,1 60 60 0,0
26.09.2018 13:00:00 24,3 11,9 29,3 16,9 19,3 21 11 42 23 SE 1029,9 53 60 0,0
26.09.2018 12:00:00 22,7 13,2 24,3 16,9 19,4 13 7 32 17 E 1030,1 60 60 0,0
26.09.2018 11:00:00 18,6 11,4 20,7 16,9 19,3 18 10 24 13 ENE 1030,5 58 60 0,0
26.09.2018 10:00:00 15,3 10,3 13,4 16,9 19,3 12 6 18 10 ENE 1030,6 48 60 0,0
26.09.2018 09:00:00 10,7 9,8 5,2 17,1 19,4 0 0 6 3 N 1030,3 54 35 0,0
26.09.2018 08:00:00 8,2 7,4 4,5 17,2 19,4 4 2 5 3 E 1029,7 59 0 0,0
26.09.2018 07:00:00 7,9 7,1 5,0 17,3 19,4 3 2 9 5 SE 1029,5 59 0 0,0
26.09.2018 06:00:00 7,0 6,4 5,0 17,5 19,4 8 4 9 5 ENE 1029,2 59 0 0,2
26.09.2018 05:00:00 6,7 6,1 4,2 17,6 19,4 5 3 10 5 E 1029,1 41 0 0,0
26.09.2018 04:00:00 6,6 5,9 4,1 17,8 19,4 4 2 7 4 ENE 1028,9 40 0 0,0
26.09.2018 03:00:00 7,2 6,8 4,9 17,9 19,5 6 3 9 5 ENE 1029,1 41 0 0,0
26.09.2018 02:00:00 7,5 6,8 4,8 18,1 19,4 5 3 8 4 E 1028,9 53 0 0,0
26.09.2018 01:00:00 8,0 7,2 4,6 18,2 19,4 7 4 8 4 E 1028,8 54 0 0,0
26.09.2018 00:00:00 8,6 7,4 5,3 18,4 19,5 4 2 8 4 ENE 1028,7 59 0 0,0
25.09.2018 23:00:00 9,4 7,3 5,9 18,5 19,5 4 2 10 5 SE 1028,4 60 0 0,0
25.09.2018 22:00:00 10,5 7,7 6,1 18,6 19,5 4 2 6 3 E 1028,2 60 0 0,0
25.09.2018 21:00:00 12,3 8,0 6,8 18,6 19,5 2 1 6 3 E 1027,7 60 0 0,0
25.09.2018 20:00:00 16,5 7,2 10,4 18,5 19,5 5 3 6 4 SSW 1027,2 45 20 0,0
25.09.2018 19:00:00 21,4 5,3 22,9 18,4 19,5 4 2 17 9 E 1026,9 58 60 0,0
25.09.2018 18:00:00 21,9 5,3 26,4 18,2 19,5 8 5 21 11 E 1026,9 54 60 0,0
25.09.2018 17:00:00 22,0 5,4 28,7 18,0 19,5 5 3 19 10 W 1027,3 59 60 0,0
25.09.2018 16:00:00 21,2 4,7 28,9 17,7 19,5 6 3 17 9 NE 1027,8 60 60 0,0
25.09.2018 15:00:00 20,3 5,5 27,4 17,4 19,6 9 5 21 11 NE 1028,4 60 60 0,0
25.09.2018 14:00:00 19,0 5,8 26,2 17,2 19,5 8 4 20 11 WNW 1028,9 60 60 0,0
25.09.2018 13:00:00 18,1 5,3 26,0 17,1 19,6 8 4 17 9 N 1029,4 60 60 0,0
25.09.2018 12:00:00 16,8 4,5 20,4 17,1 19,6 6 3 21 11 E 1029,6 60 60 0,0
25.09.2018 11:00:00 13,9 5,5 19,9 17,2 19,6 11 6 18 10 ENE 1029,6 60 60 0,0
25.09.2018 10:00:00 11,6 5,7 12,9 17,3 19,5 3 1 6 4 SE 1029,4 60 60 0,0
25.09.2018 09:00:00 7,5 5,8 0,7 17,5 19,6 3 1 8 4 WSW 1029,3 60 38 0,0
25.09.2018 08:00:00 3,5 2,6 0,4 17,7 19,6 4 2 8 5 SW 1029,1 60 0 0,0
25.09.2018 07:00:00 3,9 3,0 1,1 17,9 19,6 2 1 5 3 WSW 1029,1 60 0 0,0
25.09.2018 06:00:00 5,0 4,0 1,7 18,1 19,6 3 2 7 4 W 1029,3 16 0 0,0
25.09.2018 05:00:00 5,6 4,1 2,0 18,3 19,6 3 1 6 4 ENE 1029,5 60 0 0,0
25.09.2018 04:00:00 6,4 4,2 2,7 18,5 19,6 3 1 6 4 SSW 1029,9 60 0 0,0
25.09.2018 03:00:00 7,3 4,3 3,5 18,7 19,6 3 2 11 6 NNW 1030,1 60 0 0,0
25.09.2018 02:00:00 7,4 4,5 3,9 18,9 19,6 2 1 10 6 W 1030,5 60 0 0,0
25.09.2018 01:00:00 8,6 5,3 4,1 19,0 19,6 2 1 12 6 WNW 1030,6 60 0 0,0
25.09.2018 00:00:00 11,2 5,7 5,2 19,2 19,6 6 3 13 7 N 1030,6 60 0 0,0
24.09.2018 23:00:00 11,9 5,7 6,8 19,4 19,6 4 2 16 8 NNE 1030,8 60 0 0,0
24.09.2018 22:00:00 13,5 6,1 10,9 19,5 19,6 10 5 19 10 NNE 1030,5 60 0 0,0
24.09.2018 21:00:00 14,2 5,8 10,1 19,6 19,6 9 5 19 10 N 1030,2 60 0 0,0
24.09.2018 20:00:00 16,1 6,0 13,9 19,6 19,6 14 7 31 17 NNE 1029,8 60 22 0,0
24.09.2018 19:00:00 18,0 5,6 18,6 19,7 19,6 20 11 35 19 NNE 1029,2 51 60 0,0
24.09.2018 18:00:00 19,0 5,8 22,5 19,6 19,6 19 11 41 22 NE 1029,1 60 60 0,0
24.09.2018 17:00:00 19,6 6,0 24,2 19,5 19,6 22 12 43 23 NE 1029,3 60 60 0,0
24.09.2018 16:00:00 19,6 6,3 25,2 19,5 19,6 22 12 41 22 N 1029,4 52 60 0,0
24.09.2018 15:00:00 19,2 6,6 25,0 19,3 19,6 21 11 39 21 N 1029,8 56 60 0,0
24.09.2018 14:00:00 18,4 7,5 24,0 19,3 19,6 20 11 53 29 N 1030,1 51 60 0,0
24.09.2018 13:00:00 17,1 8,0 21,8 19,3 19,6 18 10 37 20 N 1030,6 56 58 0,0
24.09.2018 12:00:00 16,2 7,7 19,6 19,3 19,6 25 13 41 22 N 1030,9 59 60 0,0
24.09.2018 11:00:00 14,9 8,4 17,7 19,5 19,6 23 12 41 22 NNE 1030,7 60 60 0,0
24.09.2018 10:00:00 13,5 9,0 14,8 19,7 19,6 17 9 32 17 N 1030,2 47 60 0,0
24.09.2018 09:00:00 11,7 8,9 8,7 19,9 19,6 7 4 16 9 N 1029,8 59 30 0,0
24.09.2018 08:00:00 10,6 8,7 8,6 20,0 19,6 8 5 21 12 NNW 1029,1 60 0 0,0
24.09.2018 07:00:00 11,5 8,7 8,3 20,2 19,6 9 5 24 13 N 1028,3 60 0 0,0
24.09.2018 06:00:00 12,2 9,0 9,6 20,4 19,6 10 5 18 10 NNE 1027,8 60 0 0,0
24.09.2018 05:00:00 13,3 9,5 11,5 20,5 19,6 6 4 23 12 NNE 1027,4 60 0 0,0
24.09.2018 04:00:00 14,1 10,5 12,1 20,6 19,6 16 9 34 18 NNE 1027,0 60 0 0,0
24.09.2018 03:00:00 16,0 13,7 14,8 20,7 19,6 18 10 32 18 N 1026,6 60 0 0,0
24.09.2018 02:00:00 16,3 14,7 15,3 20,8 19,6 19 10 37 20 NNE 1026,2 20 0 0,4
24.09.2018 01:00:00 19,1 17,9 18,4 20,8 19,6 13 7 25 14 NW 1025,1 19 0 0,0
24.09.2018 00:00:00 19,4 18,6 19,0 20,8 19,6 12 7 29 16 WNW 1024,8 47 0 0,8
23.09.2018 23:00:00 19,9 19,2 19,6 20,8 19,6 15 8 29 16 WNW 1024,5 15 0 0,4
23.09.2018 22:00:00 20,5 19,5 19,8 20,9 19,6 18 10 29 16 W 1024,2 3,3 0 0,6
23.09.2018 21:00:00 21,8 18,6 21,1 20,8 19,6 19 10 32 18 W 1023,6 59 0 0,0
23.09.2018 20:00:00 22,6 18,2 22,1 20,8 19,7 13 7 35 19 W 1023,1 57 0 0,0
23.09.2018 19:00:00 23,9 17,9 24,1 20,6 19,7 27 15 42 23 WNW 1022,6 60 6 0,0
23.09.2018 18:00:00 26,9 17,9 29,8 20,4 19,7 24 13 39 21 W 1021,6 45 60 0,0
23.09.2018 17:00:00 28,0 17,2 28,8 20,2 19,7 26 14 44 24 W 1021,3 19 47 0,0
23.09.2018 16:00:00 28,1 17,3 30,8 19,9 19,7 24 13 39 21 WNW 1021,5 60 49 0,0
23.09.2018 15:00:00 27,5 17,9 31,1 19,6 19,6 20 11 35 19 W 1021,7 60 55 0,0
23.09.2018 14:00:00 26,3 17,9 30,6 19,3 19,7 16 9 29 16 W 1022,3 35 57 0,0
23.09.2018 13:00:00 24,3 17,8 27,5 19,2 19,7 13 7 27 14 SW 1022,9 18 42 0,0
23.09.2018 12:00:00 23,4 18,3 25,5 19,0 19,7 13 7 24 13 SSW 1023,3 53 28 0,0
23.09.2018 11:00:00 21,3 17,9 21,0 19,0 19,7 12 6 21 11 SSW 1023,5 50 6 0,0
23.09.2018 10:00:00 17,9 16,9 16,8 19,1 19,7 2 1 11 6 ENE 1023,6 35 0 0,0
23.09.2018 09:00:00 15,9 15,4 14,6 19,1 19,7 6 4 10 5 ENE 1023,3 16 0 0,0
23.09.2018 08:00:00 14,5 14,2 14,2 19,2 19,7 7 4 10 5 ENE 1023,5 20 0 0,0
23.09.2018 07:00:00 14,0 13,7 13,5 19,3 19,7 5 3 8 4 ENE 1023,6 7 0 0,0
23.09.2018 06:00:00 13,2 13,0 10,3 19,5 19,7 0 0 5 3 N 1023,7 33 0 0,0
23.09.2018 05:00:00 12,3 12,0 10,4 19,6 19,7 3 2 8 4 ESE 1023,5 19 0 0,0
23.09.2018 04:00:00 12,6 12,3 10,9 19,7 19,7 7 4 8 4 ENE 1023,7 19 0 0,0
23.09.2018 03:00:00 12,7 12,4 10,8 19,8 19,7 5 3 8 4 ENE 1024,2 20 0 0,0
23.09.2018 02:00:00 13,2 12,6 11,0 19,9 19,7 3 2 6 3 ESE 1024,4 35 0 0,0
23.09.2018 01:00:00 13,9 13,3 11,5 20,0 19,7 3 2 7 4 E 1024,3 37 0 0,0
23.09.2018 00:00:00 14,4 13,4 12,2 20,1 19,7 5 3 8 5 E 1024,4 45 0 0,0
22.09.2018 23:00:00 15,4 13,4 12,8 20,2 19,8 3 2 9 5 E 1024,0 57 0 0,0
22.09.2018 22:00:00 16,0 14,0 13,9 20,2 19,7 7 4 8 5 ENE 1023,6 57 0 0,0
22.09.2018 21:00:00 17,4 14,1 14,7 20,2 19,8 6 3 7 4 E 1023,1 55 0 0,0
22.09.2018 20:00:00 21,4 13,6 17,3 20,2 19,8 5 3 7 4 SE 1022,8 60 25 0,0
22.09.2018 19:00:00 24,1 13,0 28,0 20,0 19,7 3 1 10 5 ESE 1022,8 60 55 0,0
22.09.2018 18:00:00 24,8 12,4 30,7 19,9 19,8 3 1 20 11 N 1022,7 55 60 0,0
22.09.2018 17:00:00 24,1 12,1 32,1 19,7 19,8 6 4 18 10 N 1023,0 60 60 0,0
22.09.2018 16:00:00 23,9 12,5 31,1 19,4 19,8 5 3 16 9 S 1023,4 20 60 0,0
22.09.2018 15:00:00 22,1 12,6 29,7 19,2 19,8 6 3 18 10 NE 1024,1 35 60 0,0
22.09.2018 14:00:00 20,0 12,2 23,7 19,0 19,8 8 4 20 11 SSE 1024,3 39 58 0,0
22.09.2018 13:00:00 18,3 14,6 21,5 19,0 19,8 5 3 18 10 E 1024,8 20 40 0,0
22.09.2018 12:00:00 15,3 14,3 17,1 18,9 19,8 8 5 20 11 SE 1025,0 41 7 0,0
22.09.2018 11:00:00 13,8 13,8 13,9 18,9 19,8 6 3 12 6 E 1025,3 15 0 0,0
22.09.2018 10:00:00 12,6 12,6 12,4 19,0 19,8 4 2 11 6 SSE 1025,2 0,3 0 0,0
22.09.2018 09:00:00 11,4 11,4 10,4 19,2 19,8 8 4 12 6 E 1024,7 0,2 0 0,2
22.09.2018 08:00:00 10,4 10,4 9,9 19,3 19,8 3 1 8 4 ESE 1024,7 0,2 0 0,0
22.09.2018 07:00:00 9,9 9,7 8,4 19,5 19,8 6 3 9 5 E 1024,4 0,2 0 0,0
22.09.2018 06:00:00 9,4 9,3 7,2 19,7 19,8 3 2 5 3 SE 1024,6 0,3 0 0,0
22.09.2018 05:00:00 9,0 8,7 6,2 19,9 19,8 2 1 3 2 ENE 1024,8 0,3 0 0,0
22.09.2018 04:00:00 10,5 10,2 7,2 20,1 19,8 2 1 5 3 S 1024,8 3,6 0 0,0
22.09.2018 03:00:00 11,3 11,0 7,6 20,2 19,8 3 1 6 3 WNW 1025,0 1,6 0 0,2
22.09.2018 02:00:00 11,2 10,7 7,8 20,4 19,8 4 2 6 3 WSW 1025,1 2,3 0 0,0
22.09.2018 01:00:00 12,4 12,1 8,7 20,6 19,8 4 2 9 5 WSW 1025,2 2,2 0 0,0
22.09.2018 00:00:00 13,2 12,7 10,0 20,7 19,8 5 3 8 5 SSW 1025,0 16 0 0,0
21.09.2018 23:00:00 14,1 13,6 10,8 20,8 19,8 2 1 4 2 WNW 1024,6 0,3 0 0,0
21.09.2018 22:00:00 15,3 14,7 12,6 20,9 19,8 3 1 6 4 S 1024,1 1,5 0 0,0
21.09.2018 21:00:00 15,8 15,2 14,3 21,0 19,8 4 2 5 3 SSE 1023,6 18 0 0,0
21.09.2018 20:00:00 17,1 15,3 16,1 21,0 19,8 3 2 8 5 NNE 1023,2 19 18 0,0
21.09.2018 19:00:00 17,7 15,9 18,4 21,0 19,8 5 3 11 6 NNW 1022,7 60 6 0,0
21.09.2018 18:00:00 17,3 15,6 17,5 21,0 19,8 4 2 11 6 NW 1022,1 58 0 0,0
21.09.2018 17:00:00 16,8 15,8 17,0 21,0 19,8 10 5 31 17 NW 1021,7 10 0 1,2
21.09.2018 16:00:00 17,3 16,3 17,3 21,0 19,8 19 11 32 18 WNW 1021,1 3,9 0 0,4
21.09.2018 15:00:00 19,2 16,8 18,8 20,9 19,8 21 11 53 28 NW 1020,3 56 0 1,2
21.09.2018 14:00:00 24,0 18,2 23,6 20,8 19,8 21 12 31 17 WSW 1019,3 42 0 0,0
21.09.2018 13:00:00 22,9 17,6 24,0 20,8 19,7 18 10 33 18 SW 1019,5 37 0 0,0
21.09.2018 12:00:00 22,7 17,6 24,6 20,8 19,7 16 9 28 15 SW 1019,6 36 8 0,0
21.09.2018 11:00:00 21,4 18,2 21,8 20,8 19,7 10 6 22 12 SW 1019,5 20 0 0,0
21.09.2018 10:00:00 20,3 17,5 20,1 20,8 19,8 8 5 14 8 SSW 1018,7 20 0 0,0
21.09.2018 09:00:00 19,0 17,5 17,4 20,9 19,7 5 3 11 6 SSW 1018,4 17 0 0,0
21.09.2018 08:00:00 17,9 17,1 16,9 21,0 19,7 5 3 9 5 WSW 1017,6 16 0 0,0
21.09.2018 07:00:00 17,3 16,8 15,3 21,2 19,8 5 3 11 6 S 1016,9 18 0 0,0
21.09.2018 06:00:00 16,2 15,9 13,2 21,3 19,7 4 2 7 4 SSE 1016,9 12 0 0,0
21.09.2018 05:00:00 15,7 14,9 13,4 21,4 19,7 4 2 9 5 SSW 1016,7 11 0 0,0
21.09.2018 04:00:00 16,6 15,5 14,8 21,5 19,7 6 4 17 9 S 1016,4 17 0 0,0
21.09.2018 03:00:00 17,2 15,7 16,3 21,7 19,7 13 7 19 10 W 1016,8 20 0 0,0
21.09.2018 02:00:00 17,9 15,7 16,5 21,8 19,7 10 6 16 9 W 1016,1 30 0 0,0
21.09.2018 01:00:00 19,2 16,2 15,8 21,9 19,7 11 6 26 14 W 1016,0 33 0 0,0
21.09.2018 00:00:00 19,8 16,6 17,7 22,1 19,8 10 6 16 9 W 1015,7 34 0 0,0
20.09.2018 23:00:00 20,7 17,3 16,9 22,1 19,7 10 5 26 14 WSW 1015,7 34 0 0,0
20.09.2018 22:00:00 19,4 16,6 16,2 22,2 19,7 8 4 10 5 E 1015,3 34 0 0,0
20.09.2018 21:00:00 21,4 16,1 16,7 22,1 19,7 5 3 6 3 E 1015,0 41 0 0,0
20.09.2018 20:00:00 26,4 15,7 21,1 22,0 19,7 3 2 13 7 S 1015,0 58 22 0,0
20.09.2018 19:00:00 30,6 14,7 31,5 21,9 19,7 10 5 18 10 SW 1015,1 52 60 0,0
20.09.2018 18:00:00 32,0 16,3 36,9 21,6 19,7 7 4 18 10 S 1015,2 46 60 0,0
20.09.2018 17:00:00 31,6 16,4 37,7 21,4 19,7 13 7 21 12 SSW 1015,9 36 60 0,0

tt = temperature
td = dewpoint
tt 5cm = temperature 5cm
tt -20cm = temperature -20cm
tt -100cm = temperature -100cm
ff = wind speed
fx = gusts
dd = wind direction
ppp = reduced air pressure
vv = visibility
sd = sunshine duration
rr = precipitation

Next stations